Change the Weather History Date:

Friday, March 2, 2012

  Actual Average Record
Temperature  
Mean Temperature 47 °F 41 °F  
Max Temperature 57 °F 51 °F 75 °F (1967)
Min Temperature 36 °F 31 °F -9 °F (1980)
Degree Days  
Heating Degree Days 18 24  
Month to date heating degree days 30 48  
Since 1 July heating degree days 3026 3665  
Cooling Degree Days 0 0  
Month to date cooling degree days 0 0  
Year to date cooling degree days 0 0  
Moisture  
Dew Point 34 °F    
Average Humidity 61    
Maximum Humidity 82    
Minimum Humidity 40    
Precipitation  
Precipitation 0.06 in 0.08 in 1.25 in (1945)
Month to date precipitation 0.06 0.15  
Year to date precipitation 3.09 3.75  
Sea Level Pressure  
Sea Level Pressure 29.67 in    
Wind  
Wind Speed 12 mph (NW)    
Max Wind Speed 28 mph    
Max Gust Speed 33 mph    
Visibility 8 miles    
Events Rain , Snow , Thunderstorm    
T = Trace of Precipitation, MM = Missing Value Source: NWS Daily Summary

Daily Weather History Graph

Daily Weather History Graph

Search for Another Location

Airport or City:

Trip Planner

Search our weather history database for the weather conditions in past years. The results will help you decide how hot, cold, wet, or windy it might be!

Date:

Astronomy

Mar. 02, 2012 Rise Set
Actual Time 6:42 AM CST 6:07 PM CST
Civil Twilight 6:16 AM CST 6:33 PM CST
Nautical Twilight 5:45 AM CST 7:04 PM CST
Astronomical Twilight 5:14 AM CST 7:35 PM CST
Moon 12:22 PM CST (3/2) 2:30 AM CST (3/2)
Length of Visible Light 12h 17m
Length of Day
11h 24m
Waxing Gibbous, 66% of the Moon is Illuminated
Mar 2
Waxing Gibbous
Mar 8
Full
Mar 14
Last Quarter
Mar 22
New
Mar 30
First Quarter

Hourly Weather History & Observations

Time (CST) Temp. Windchill Dew Point Humidity Pressure Visibility Wind Dir Wind Speed Gust Speed Precip Events Conditions
12:53 AM 53.1 °F - 33.1 °F 47% 29.51 in 10.0 mi SW 4.6 mph - N/A   Clear
1:53 AM 45.0 °F 39.7 °F 35.1 °F 68% 29.51 in 10.0 mi NW 10.4 mph - N/A   Clear
2:53 AM 42.1 °F 37.7 °F 34.0 °F 73% 29.46 in 10.0 mi North 6.9 mph - N/A   Clear
3:53 AM 43.0 °F 34.5 °F 35.1 °F 74% 29.46 in 10.0 mi NNE 19.6 mph - 0.00 in Rain Light Rain
4:53 AM 43.0 °F 36.8 °F 35.1 °F 74% 29.47 in 10.0 mi NNW 11.5 mph - 0.00 in   Overcast
5:53 AM 42.1 °F 37.1 °F 34.0 °F 73% 29.50 in 10.0 mi NNW 8.1 mph - N/A   Overcast
6:53 AM 39.9 °F 31.8 °F 34.0 °F 79% 29.49 in 9.0 mi NNW 15.0 mph - N/A   Overcast
7:12 AM 39.2 °F 31.6 °F 33.8 °F 81% 29.50 in 8.0 mi NNW 12.7 mph - N/A Thunderstorm Overcast
7:27 AM 39.2 °F 30.8 °F 33.8 °F 81% 29.50 in 7.0 mi North 15.0 mph - N/A   Overcast
7:53 AM 41.0 °F 33.5 °F 34.0 °F 76% 29.50 in 7.0 mi North 13.8 mph - N/A   Scattered Clouds
8:53 AM 41.0 °F 33.1 °F 34.0 °F 76% 29.54 in 7.0 mi NNW 15.0 mph - N/A   Overcast
9:22 AM 42.8 °F 34.8 °F 33.8 °F 70% 29.52 in 7.0 mi North 17.3 mph - N/A   Mostly Cloudy
9:30 AM 42.8 °F 35.4 °F 33.8 °F 70% 29.53 in 6.0 mi NNW 15.0 mph - N/A   Haze
9:37 AM 44.6 °F 38.8 °F 33.8 °F 66% 29.53 in 7.0 mi NNW 11.5 mph - N/A   Mostly Cloudy
9:53 AM 43.0 °F 36.0 °F 34.0 °F 71% 29.54 in 7.0 mi NW 13.8 mph - N/A   Mostly Cloudy
10:29 AM 42.8 °F 34.3 °F 33.8 °F 70% 29.60 in 7.0 mi WNW 19.6 mph 27.6 mph N/A   Overcast
10:53 AM 41.0 °F 32.5 °F 34.0 °F 76% 29.64 in 5.0 mi WNW 17.3 mph 26.5 mph 0.00 in Rain Light Rain
11:30 AM 39.2 °F 29.8 °F 35.6 °F 87% 29.67 in 4.0 mi WNW 18.4 mph 31.1 mph 0.03 in Rain Light Rain
11:53 AM 37.0 °F 26.2 °F 36.0 °F 96% 29.70 in 5.0 mi NW 21.9 mph 33.4 mph 0.04 in Snow Light Snow
12:04 PM 37.4 °F 26.9 °F 35.6 °F 93% 29.71 in 4.0 mi WNW 20.7 mph 28.8 mph 0.00 in Snow Light Snow
12:12 PM 35.6 °F 24.2 °F - N/A% 29.71 in 1.8 mi NW 21.9 mph 29.9 mph 0.01 in Snow Light Snow
12:26 PM 37.4 °F 27.2 °F - N/A% 29.70 in 3.0 mi NW 19.6 mph 31.1 mph 0.02 in Snow Light Snow
12:53 PM 39.0 °F 28.8 °F 37.0 °F 93% 29.73 in 8.0 mi NW 21.9 mph 32.2 mph 0.02 in Rain Light Rain
1:06 PM 39.2 °F 28.7 °F 35.6 °F 87% 29.74 in 8.0 mi NW 23.0 mph 33.4 mph 0.00 in Rain Light Rain
1:53 PM 39.9 °F 30.2 °F 37.0 °F 89% 29.78 in 10.0 mi NNW 20.7 mph 31.1 mph 0.00 in   Overcast
2:12 PM 42.8 °F 33.8 °F 37.4 °F 81% 29.77 in 10.0 mi North 21.9 mph 28.8 mph 0.00 in   Overcast
2:53 PM 43.0 °F 35.4 °F 37.0 °F 80% 29.81 in 10.0 mi NNW 16.1 mph - 0.00 in   Overcast
3:53 PM 45.0 °F 38.5 °F 35.1 °F 68% 29.84 in 10.0 mi NNW 13.8 mph - N/A   Mostly Cloudy
4:53 PM 46.0 °F 41.4 °F 34.0 °F 63% 29.86 in 10.0 mi WNW 9.2 mph - N/A   Partly Cloudy
5:53 PM 43.0 °F 40.3 °F 32.0 °F 65% 29.88 in 10.0 mi West 4.6 mph - N/A   Clear
6:53 PM 42.1 °F 39.2 °F 30.9 °F 65% 29.90 in 10.0 mi WSW 4.6 mph - N/A   Clear
7:53 PM 39.9 °F 35.8 °F 30.9 °F 70% 29.89 in 10.0 mi SW 5.8 mph - N/A   Clear
8:53 PM 39.0 °F 33.4 °F 30.9 °F 73% 29.89 in 10.0 mi SW 8.1 mph - N/A   Clear
9:53 PM 37.0 °F 31.0 °F 30.0 °F 76% 29.91 in 10.0 mi SW 8.1 mph - N/A   Clear
10:53 PM 37.9 °F 32.1 °F 30.0 °F 73% 29.92 in 10.0 mi WSW 8.1 mph - N/A   Clear
11:53 PM 37.0 °F 31.0 °F 28.0 °F 70% 29.93 in 10.0 mi WNW 8.1 mph - N/A   Clear